Location: �perlecques
(50.8057°N, 2.1521°E)
Time: 01:47:45
(UTC+00:00)

VELOX 1 - Pass Details

Date: 26 September 2021
Orbit: 627 x 642 km, 98.3° (Epoch: 21 October)

Event Time Altitude Azimuth Distance (km) Brightness Sun altitude
Exits shadow 01:28:02 - 92° (E) 2,333 ? -35.7°
Reaches altitude 10° 01:29:32 10° 76° (ENE) 2,016 ? -35.6°
Maximum altitude 01:31:13 12° 53° (NE) 1,880 ? -35.4°
Drops below altitude 10° 01:32:55 10° 30° (NNE) 2,019 ? -35.3°
Sets 01:36:24 0° 1° (N) 2,930 ? -35.0°
